#timestamp,LO_Frequency,Hit,StdDev 
1571072415.2,286047000.3,N
1571072435.0,286047001.1,N
1571072435.9,286047001.1,N
1571072455.8,286047000.9,N
1571072475.6,286047003.4,N
1571072495.5,286047005.7,N
1571072515.3,286047008.0,N
1571072535.1,286047007.7,N
1571072555.9,286047009.7,Y
1571072575.7,286047007.2,P
1571072595.5,286047006.7,P
1571072615.4,286047007.3,P
1571072635.2,286047009.1,Y
1571072655.1,286047000.2,P
1571072656.0,286047000.2,N
1571072675.8,286047001.2,N
1571072695.6,286046998.4,N
1571072715.5,286046998.4,N
1571072735.3,286046999.4,N
1571072755.2,286046998.8,N
1571072775.9,286046996.5,N
1571072795.7,286046997.8,N
1571072815.6,286046999.3,N
1571072835.4,286046998.9,N
1571072855.2,286046999.4,N
1571072875.1,286046998.8,N
1571072876.0,286046998.8,N
1571072895.8,286046999.1,N
1571072915.7,286046995.5,N
1571072935.5,286046999.4,N
1571072955.3,286047000.7,N
1571072975.2,286047001.6,N
1571072995.0,286047005.1,N
1571072995.9,286047005.1,N
1571073015.8,286047006.0,N
1571073035.6,286047002.4,N
1571073055.4,286047001.7,N
1571073075.3,286047003.5,N
1571073095.1,286047007.5,N
1571073115.8,286047006.3,N
1571073135.7,286047007.5,N
1571073155.5,286047005.6,N
1571073175.4,286047004.5,N
1571073195.2,286047004.6,N
1571073215.0,286047005.2,N
1571073215.9,286047005.2,N
1571073235.8,286047003.8,N
1571073255.6,286047000.2,N
1571073275.4,286047000.3,N
1571073295.3,286047004.4,N
1571073315.1,286047005.4,N
1571073335.9,286047009.2,N
1571073355.7,286047007.6,N
1571073375.5,286047004.8,N
1571073395.4,286047004.8,N
1571073415.2,286047002.9,N
1571073435.1,286047007.0,N
1571073436.0,286047007.0,N
1571073455.8,286047008.8,Y
1571073475.6,286047006.2,P
1571073495.5,286047008.6,P
1571073515.3,286047010.6,P
1571073535.1,286047012.1,Y
1571073555.9,286047003.1,P
1571073575.7,286047003.4,N
1571073595.6,286047002.8,N
1571073615.4,286046997.2,N
1571073635.2,286046996.6,N
1571073655.1,286046997.7,N
1571073656.0,286046997.7,N
1571073675.8,286046999.4,N
1571073695.7,286046998.3,N
1571073715.5,286047000.1,N
1571073735.3,286047002.7,N
1571073755.2,286047004.2,N
1571073775.0,286047004.0,N
1571073775.9,286047004.0,N
1571073795.7,286047003.1,N
1571073815.6,286047004.4,N
1571073835.4,286047001.2,N
1571073855.3,286047000.9,N
1571073875.1,286046998.4,N
1571073895.8,286046998.7,N
1571073915.7,286046998.6,N
1571073935.5,286046999.0,N
1571073955.4,286046997.3,N
1571073975.2,286046996.5,N
1571073995.0,286047000.8,N
1571073995.9,286047000.8,N
1571074015.8,286047002.7,N
1571074035.6,286047004.2,N
1571074055.4,286047003.6,N
1571074075.3,286047003.5,N
1571074095.1,286047004.2,N
1571074115.9,286047005.1,N
1571074135.7,286047008.9,Y
1571074155.5,286047010.3,P
1571074175.4,286047011.8,N
1571074195.2,286047011.7,N
1571074215.0,286047009.6,N
1571074215.9,286047009.6,N
1571074235.8,286047006.6,N
1571074255.6,286047003.2,N
1571074275.5,286047004.4,N
1571074295.3,286047001.7,N
1571074315.1,286047003.6,N
1571074335.9,286047005.5,N
1571074355.7,286047006.0,N
1571074375.6,286047000.1,N
1571074395.4,286046999.2,N
1571074415.2,286046996.5,N
1571074435.1,286046996.6,N
1571074436.0,286046996.6,N
1571074455.8,286046993.3,N
1571074475.6,286046997.1,N
1571074495.5,286046998.0,N
1571074515.3,286046994.2,N
1571074535.2,286046992.0,N
1571074555.9,286046992.6,N
1571074575.7,286046992.1,N
1571074595.6,286046990.2,N
1571074615.4,286046988.6,N
1571074635.2,286046989.9,N
1571074655.1,286046987.9,N
1571074656.0,286046987.9,N
1571074675.8,286046988.9,N
1571074695.7,286046992.8,N
1571074715.5,286046993.0,N
1571074735.3,286046992.7,N
1571074755.2,286046990.5,N
1571074775.0,286046992.6,N
1571074775.9,286046992.6,N
1571074795.8,286046992.2,N
1571074815.6,286046994.7,N
1571074835.4,286046996.4,N
1571074855.3,286046997.9,N
1571074875.1,286046997.4,N
1571074895.8,286046996.7,N
1571074915.7,286046996.5,N
1571074935.5,286046999.4,N
1571074955.4,286046998.6,N
1571074975.2,286047000.1,N
1571074995.0,286047000.1,N
1571074995.9,286047000.1,N
1571075015.8,286047000.6,N
1571075035.6,286046999.7,N
1571075055.4,286047011.9,N
1571075075.3,286047002.3,N
1571075095.1,286047002.4,N
1571075115.9,286047001.7,N
1571075135.7,286047001.9,N
1571075155.5,286047003.9,N
1571075175.4,286047002.5,N
1571075195.2,286047002.3,N
1571075215.1,286046999.8,N
1571075216.0,286046999.8,N
1571075235.8,286046998.9,N
1571075255.6,286046998.4,N
1571075275.5,286046999.4,N
1571075295.3,286046997.7,N
1571075315.1,286046995.9,N
1571075335.9,286046994.2,N
1571075355.7,286046991.8,N
1571075375.6,286046994.7,N
1571075395.4,286046994.2,N
1571075415.2,286046997.9,N
1571075435.1,286046996.7,N
1571075436.0,286046996.7,N
1571075455.8,286046996.1,N
1571075475.7,286046998.4,N
1571075495.5,286046998.4,N
1571075515.3,286046999.2,N
1571075535.2,286046998.6,N
1571075555.9,286047004.0,N
1571075575.7,286047004.1,N
1571075595.6,286047002.8,N
1571075615.4,286046999.0,N
1571075635.3,286046995.5,N
1571075655.1,286046995.8,N
1571075656.0,286046995.8,N
1571075675.8,286046995.9,N
1571075695.7,286046992.3,N
1571075715.5,286046991.7,N
1571075735.3,286046992.2,N
1571075755.2,286046992.9,N
1571075775.0,286046994.3,N
1571075775.9,286046994.3,N
1571075795.8,286046999.2,N
1571075815.6,286046995.2,N
1571075835.4,286046993.4,N
1571075855.3,286046995.6,N
1571075875.1,286046995.1,N
1571075895.8,286046993.7,N
1571075915.7,286046993.9,N
1571075935.5,286046992.3,N
1571075955.4,286046993.5,N
1571075975.2,286046994.2,N
1571075995.0,286046991.9,N
1571075995.9,286046991.9,N
